Rogers City, MI

1:40 AM EDT on August 24, 2019 (GMT -0400)
Presque Isle County

Weather History for KPZQ - July, 2019

Change the Weather History Date:

Friday, July 19, 2019

  Actual Average (WUND) Record (WUND)
Temperature  
Mean Temperature 80 °F -  
Max Temperature 90 °F - - (-1)
Min Temperature 71 °F - - (-1)
Cooling Degree Days 16    
Growing Degree Days 30 (Base 50)    
Moisture  
Dew Point 70 °F    
Average Humidity 78    
Maximum Humidity 91    
Minimum Humidity 42    
Precipitation  
Precipitation 0.00 in - - ()
Sea Level Pressure  
Sea Level Pressure 29.76 in    
Wind  
Wind Speed 5 mph (WSW)    
Max Wind Speed 12 mph    
Max Gust Speed 18 mph    
Visibility 10 miles    
Events Rain    
Averages and records for this station are not official NWS values.
T = Trace of Precipitation, MM = Missing Value Source: NWS Daily Summary

Daily Weather History Graph

Daily Weather History Graph

Search for Another Location

Airport or City:

Astronomy

Jul. 19, 2019 Rise Set
Actual Time 6:05 AM EDT 9:17 PM EDT
Civil Twilight 5:29 AM EDT 9:53 PM EDT
Nautical Twilight 4:42 AM EDT 10:39 PM EDT
Astronomical Twilight 3:45 AM EDT 11:36 PM EDT
Moon 11:08 PM EDT (7/19) 8:35 AM EDT (7/19)
Length of Visible Light 16h 24m
Length of Day
15h 12m
Waning Gibbous, 93% of the Moon is Illuminated
Jul 19
Waning Gibbous
Jul 24
Last Quarter
Jul 31
New
Aug 7
First Quarter
Aug 15
Full

Hourly Weather History & Observations

Time (EDT) Temp. Heat Index Dew Point Humidity Pressure Visibility Wind Dir Wind Speed Gust Speed Precip Events Conditions
12:17 AM 75.4 °F - 66.6 °F 74% 29.72 in 10.0 mi SW 6.9 mph - N/A   Clear
12:35 AM 75.6 °F - 66.7 °F 74% 29.72 in 10.0 mi SSW 5.8 mph - N/A   Clear
12:55 AM 75.2 °F - 66.7 °F 75% 29.72 in 10.0 mi SW 5.8 mph - N/A   Clear
1:15 AM 74.7 °F - 67.1 °F 77% 29.72 in 10.0 mi SW 4.6 mph - N/A   Clear
1:19 AM 74.5 °F - 67.1 °F 78% 29.72 in 10.0 mi SW 4.6 mph - N/A   Clear
1:38 AM 73.6 °F - 67.1 °F 80% 29.72 in 10.0 mi SW 3.5 mph - N/A   Clear
1:56 AM 73.4 °F - 67.1 °F 81% 29.72 in 10.0 mi SW 5.8 mph - N/A   Clear
2:15 AM 73.2 °F - 67.5 °F 82% 29.73 in 10.0 mi WSW 5.8 mph - N/A   Scattered Clouds
2:35 AM 73.0 °F - 67.3 °F 82% 29.73 in 10.0 mi WSW 6.9 mph - N/A   Scattered Clouds
2:36 AM 73.0 °F - 67.3 °F 82% 29.73 in 10.0 mi WSW 6.9 mph - N/A   Scattered Clouds
2:59 AM 73.4 °F - 67.5 °F 82% 29.73 in 10.0 mi SW 8.1 mph - N/A   Mostly Cloudy
3:17 AM 73.2 °F - 67.6 °F 83% 29.72 in 10.0 mi SW 6.9 mph - N/A   Scattered Clouds
3:35 AM 73.4 °F - 68.0 °F 83% 29.72 in 10.0 mi SW 8.1 mph - N/A   Clear
3:55 AM 72.9 °F - 68.0 °F 85% 29.72 in 10.0 mi SW 6.9 mph - N/A   Clear
3:56 AM 72.9 °F - 68.0 °F 85% 29.72 in 10.0 mi SW 6.9 mph - N/A   Clear
4:15 AM 72.5 °F - 68.0 °F 86% 29.72 in 10.0 mi SW 5.8 mph - N/A   Clear
4:20 AM 72.5 °F - 68.0 °F 86% 29.72 in 10.0 mi SW 5.8 mph - N/A   Clear
4:38 AM 72.1 °F - 68.2 °F 87% 29.72 in 10.0 mi SW 5.8 mph - N/A   Clear
4:56 AM 72.0 °F - 68.2 °F 88% 29.72 in 10.0 mi SW 5.8 mph - N/A   Clear
5:15 AM 71.6 °F - 68.2 °F 89% 29.73 in 10.0 mi SW 5.8 mph - N/A   Clear
5:35 AM 71.8 °F - 68.4 °F 89% 29.73 in 10.0 mi SW 4.6 mph - N/A   Clear
5:36 AM 71.8 °F - 68.5 °F 89% 29.73 in 10.0 mi SW 5.8 mph - N/A   Clear
5:59 AM 72.0 °F - 68.9 °F 90% 29.74 in 10.0 mi SW 5.8 mph - N/A   Clear
6:17 AM 72.5 °F - 69.3 °F 90% 29.74 in 10.0 mi SW 5.8 mph - N/A   Clear
6:35 AM 73.0 °F - 69.8 °F 90% 29.74 in 10.0 mi SW 3.5 mph - N/A   Clear
6:55 AM 72.7 °F - 69.6 °F 90% 29.74 in 10.0 mi SW 4.6 mph - N/A   Clear
6:56 AM 72.7 °F - 69.6 °F 90% 29.74 in 10.0 mi SW 4.6 mph - N/A   Clear
7:15 AM 72.9 °F - 69.8 °F 90% 29.74 in 10.0 mi SW 4.6 mph - N/A   Scattered Clouds
7:20 AM 72.9 °F - 69.8 °F 90% 29.73 in 10.0 mi SW 3.5 mph - N/A   Scattered Clouds
7:37 AM 73.0 °F - 70.2 °F 91% 29.75 in 10.0 mi SW 5.8 mph - N/A   Mostly Cloudy
7:56 AM 73.6 °F - 70.7 °F 91% 29.74 in 10.0 mi SW 3.5 mph - N/A   Mostly Cloudy
8:15 AM 73.9 °F - 70.9 °F 90% 29.75 in 10.0 mi SW 5.8 mph - N/A   Scattered Clouds
8:16 AM 73.9 °F - 70.9 °F 90% 29.75 in 10.0 mi SW 5.8 mph - N/A   Clear
8:35 AM 74.3 °F - 71.2 °F 90% 29.76 in 10.0 mi SW 5.8 mph - N/A Rain Light Rain
8:59 AM 74.7 °F - 71.8 °F 91% 29.76 in 10.0 mi SSW 5.8 mph - N/A   Scattered Clouds
9:16 AM 75.4 °F - 72.3 °F 90% 29.75 in 10.0 mi SSW 4.6 mph - N/A   Scattered Clouds
9:35 AM 77.4 °F - 73.4 °F 88% 29.76 in 10.0 mi SW 6.9 mph - N/A   Scattered Clouds
9:55 AM 78.3 °F - 73.4 °F 85% 29.76 in 10.0 mi SSW 6.9 mph - N/A   Mostly Cloudy
9:56 AM 78.3 °F - 73.4 °F 85% 29.76 in 10.0 mi SSW 6.9 mph - N/A   Mostly Cloudy
10:15 AM 80.2 °F 85.4 °F 75.0 °F 84% 29.75 in 10.0 mi WSW 5.8 mph - N/A   Mostly Cloudy
10:20 AM 81.1 °F 87.2 °F 75.0 °F 82% 29.75 in 10.0 mi WSW 4.6 mph - N/A   Mostly Cloudy
10:38 AM 82.6 °F 89.1 °F 74.5 °F 76% 29.72 in 10.0 mi WSW 3.5 mph - N/A   Scattered Clouds
10:56 AM 83.3 °F 90.2 °F 74.1 °F 74% 29.72 in 10.0 mi West 5.8 mph - N/A   Scattered Clouds
11:15 AM 83.3 °F 89.9 °F 73.8 °F 73% 29.72 in 10.0 mi North 4.6 mph - N/A   Clear
11:16 AM 83.3 °F 90.2 °F 74.1 °F 74% 29.72 in 10.0 mi NNE 3.5 mph - N/A   Clear
11:35 AM 84.4 °F 91.7 °F 73.9 °F 71% 29.73 in 10.0 mi SW 8.1 mph - N/A   Clear
11:36 AM 84.6 °F 91.7 °F 73.8 °F 70% 29.73 in 10.0 mi SW 8.1 mph - N/A   Clear
11:59 AM 86.5 °F 93.8 °F 73.0 °F 64% 29.74 in 10.0 mi West 6.9 mph - N/A   Clear
12:17 PM 87.8 °F 95.2 °F 72.7 °F 61% 29.74 in 10.0 mi West 10.4 mph - N/A   Scattered Clouds
12:35 PM 86.7 °F 95.0 °F 73.9 °F 66% 29.75 in 10.0 mi West 6.9 mph - N/A   Scattered Clouds
12:36 PM 86.5 °F 94.6 °F 73.8 °F 66% 29.75 in 10.0 mi West 6.9 mph - N/A   Scattered Clouds
12:55 PM 83.8 °F 91.1 °F 74.5 °F 73% 29.75 in 10.0 mi North 6.9 mph - N/A   Scattered Clouds
12:56 PM 83.1 °F 89.8 °F 74.1 °F 74% 29.76 in 10.0 mi North 5.8 mph - N/A   Scattered Clouds
1:15 PM 79.0 °F - 73.6 °F 83% 29.77 in 10.0 mi North 6.9 mph - N/A   Scattered Clouds
1:38 PM 78.1 °F - 72.9 °F 84% 29.78 in 7.0 mi North 6.9 mph - N/A   Mostly Cloudy
1:56 PM 77.5 °F - 72.7 °F 85% 29.79 in 7.0 mi North 5.8 mph - N/A   Scattered Clouds
2:15 PM 79.5 °F - 73.6 °F 82% 29.78 in 7.0 mi NNE 4.6 mph - N/A   Scattered Clouds
2:35 PM 80.8 °F 85.8 °F 73.8 °F 79% 29.78 in 10.0 mi NNE 5.8 mph - N/A   Scattered Clouds
2:59 PM 82.9 °F 88.5 °F 72.5 °F 71% 29.78 in 10.0 mi West 8.1 mph - N/A   Clear
3:17 PM 90.0 °F 93.2 °F 67.5 °F 47% 29.78 in 10.0 mi West 11.5 mph 18.4 mph N/A   Clear
3:35 PM 90.5 °F 94.6 °F 68.2 °F 48% 29.78 in 10.0 mi West 9.2 mph 16.1 mph N/A   Clear
3:36 PM 90.5 °F 94.2 °F 68.0 °F 47% 29.78 in 10.0 mi West 10.4 mph 16.1 mph N/A   Clear
3:55 PM 90.9 °F 93.1 °F 65.5 °F 43% 29.78 in 10.0 mi West 8.1 mph 17.3 mph N/A   Clear
4:15 PM 83.7 °F 88.9 °F 71.8 °F 67% 29.78 in 10.0 mi NNE 6.9 mph - N/A   Clear
4:38 PM 82.0 °F 86.7 °F 71.6 °F 71% 29.79 in 10.0 mi North 3.5 mph - N/A   Clear
4:56 PM 83.1 °F 88.4 °F 72.1 °F 69% 29.79 in 10.0 mi Calm Calm - N/A   Clear
5:15 PM 89.4 °F 90.8 °F 64.0 °F 43% 29.79 in 10.0 mi WNW 9.2 mph 16.1 mph N/A   Clear
5:35 PM 90.3 °F 91.9 °F 64.4 °F 42% 29.79 in 10.0 mi West 9.2 mph - N/A   Clear
5:59 PM 82.9 °F 87.5 °F 71.1 °F 67% 29.80 in 10.0 mi North 5.8 mph - N/A   Clear
6:17 PM 80.8 °F 84.9 °F 71.8 °F 74% 29.80 in 10.0 mi North 5.8 mph - N/A   Clear
6:35 PM 79.3 °F - 71.2 °F 76% 29.80 in 10.0 mi North 5.8 mph - N/A   Clear
6:55 PM 79.3 °F - 70.3 °F 74% 29.80 in 10.0 mi NNW 3.5 mph - N/A   Clear
7:15 PM 80.2 °F 83.3 °F 69.8 °F 70% 29.78 in 10.0 mi NW 3.5 mph - N/A   Clear
7:19 PM 80.8 °F 84.1 °F 69.6 °F 69% 29.78 in 10.0 mi NNW 3.5 mph - N/A   Clear
7:38 PM 80.6 °F 83.5 °F 68.9 °F 67% 29.77 in 10.0 mi North 3.5 mph - N/A   Clear
7:56 PM 79.2 °F - 69.1 °F 71% 29.76 in 10.0 mi Calm Calm - N/A   Clear
8:15 PM 77.5 °F - 69.1 °F 75% 29.77 in 10.0 mi Calm Calm - N/A   Clear
8:35 PM 77.0 °F - 69.8 °F 78% 29.79 in 10.0 mi Calm Calm - N/A   Clear
8:36 PM 77.0 °F - 69.6 °F 78% 29.79 in 10.0 mi Calm Calm - N/A   Clear
8:59 PM 75.4 °F - 69.3 °F 81% 29.81 in 7.0 mi Calm Calm - N/A   Clear
9:17 PM 74.3 °F - 68.9 °F 83% 29.81 in 10.0 mi Calm Calm - N/A   Clear
9:35 PM 74.3 °F - 69.1 °F 84% 29.82 in 7.0 mi Calm Calm - N/A   Clear
9:36 PM 74.3 °F - 69.1 °F 84% 29.82 in 7.0 mi Calm Calm - N/A   Clear
9:55 PM 74.1 °F - 69.4 °F 85% 29.82 in 10.0 mi Calm Calm - N/A   Clear
9:56 PM 74.1 °F - 69.6 °F 86% 29.82 in 10.0 mi SE 3.5 mph - N/A   Clear
10:15 PM 75.2 °F - 69.6 °F 83% 29.82 in 10.0 mi Calm Calm - N/A   Clear
10:20 PM 74.3 °F - 68.7 °F 83% 29.83 in 10.0 mi Calm Calm - N/A   Clear
10:38 PM 74.5 °F - 69.4 °F 84% 29.82 in 10.0 mi Calm Calm - N/A   Clear
10:56 PM 73.8 °F - 69.1 °F 85% 29.82 in 10.0 mi Calm Calm - N/A   Clear
11:15 PM 74.3 °F - 69.1 °F 84% 29.83 in 10.0 mi Calm Calm - N/A   Clear
11:35 PM 74.5 °F - 68.9 °F 83% 29.82 in 10.0 mi Calm Calm - N/A   Clear
11:36 PM 74.5 °F - 68.9 °F 83% 29.82 in 10.0 mi Calm Calm - N/A   Clear
11:59 PM 73.0 °F - 68.4 °F 85% 29.79 in 10.0 mi Calm Calm - N/A   Scattered Clouds